Location: San Antonio
(29.4240°N, 98.4930°W)
Time: 02:25:14
(UTC-05:00)

ISS - All Passes

Search period start: 20 September 2017 00:00
Search period end: 30 September 2017 00:00
Orbit: 401 x 407 km, 51.6° (Epoch: 20 September)

Date Brightness Start Highest point End Pass type
(mag) Time Alt. Az. Time Alt. Az. Time Alt. Az.
20 Sep - 06:33:26 10° NW 06:36:43 74° NE 06:39:59 10° SE visible
20 Sep - 21:32:28 10° SSW 21:35:34 42° SE 21:38:40 10° ENE night (unlit)
20 Sep - 23:10:24 10° WNW 23:12:10 14° NW 23:13:57 10° N night (unlit)
21 Sep - 05:41:23 10° NNW 05:44:22 31° NE 05:47:20 10° ESE visible
21 Sep - 07:18:43 10° W 07:20:35 14° SW 07:22:27 10° SSW daylight
21 Sep - 20:41:02 10° S 20:43:22 18° SE 20:45:41 10° E visible
21 Sep - 22:16:53 10° W 22:19:40 25° NW 22:22:28 10° NNE night (unlit)
22 Sep - 04:49:42 10° N 04:51:53 16° NE 04:54:05 10° E visible
22 Sep - 06:25:26 10° WNW 06:28:24 32° SW 06:31:22 10° SSE visible
22 Sep - 21:24:04 10° SW 21:27:16 55° NW 21:30:29 10° NE visible
23 Sep - 05:32:51 10° NW 05:36:09 81° SW 05:39:24 10° SE visible
23 Sep - 20:31:44 10° SSW 20:34:55 58° SE 20:38:09 10° NE visible
23 Sep - 22:10:35 10° NW 22:11:39 11° NW 22:12:44 10° NNW visible
24 Sep - 04:40:38 10° NNW 04:43:47 41° NE 04:46:53 10° ESE night (unlit)
24 Sep - 06:19:00 10° WSW 06:19:54 11° SW 06:20:48 10° SW visible
24 Sep - 19:40:00 10° S 19:42:41 24° SE 19:45:22 10° ENE daylight
24 Sep - 21:16:34 10° W 21:19:05 20° NW 21:21:36 10° NNE visible
25 Sep - 03:48:45 10° NNW 03:51:18 20° NE 03:53:49 10° E night (unlit)
25 Sep - 05:25:00 10° WNW 05:27:42 24° SW 05:30:25 10° S night (unlit)
25 Sep - 18:49:43 10° SE 18:50:28 11° SE 18:51:15 10° ESE daylight
25 Sep - 20:23:30 10° WSW 20:26:36 41° NW 20:29:43 10° NNE visible
26 Sep - 02:57:38 10° NNE 02:58:42 11° NE 02:59:48 10° NE night (unlit)
26 Sep - 04:32:12 10° NW 04:35:26 59° SW 04:38:38 10° SSE night (unlit)
26 Sep - 19:30:57 10° SW 19:34:12 80° SE 19:37:28 10° NE daylight
27 Sep - 03:39:49 10° NW 03:43:03 55° NE 03:46:17 10° SE night (unlit)
27 Sep - 18:38:57 10° SSW 18:41:53 31° SE 18:44:49 10° ENE daylight
27 Sep - 20:16:12 10° W 20:18:23 16° NW 20:20:34 10° N visible
28 Sep - 02:47:47 10° NNW 02:50:34 25° NE 02:53:21 10° E night (unlit)
28 Sep - 04:24:31 10° W 04:26:53 18° SW 04:29:15 10° S night (unlit)
28 Sep - 17:47:50 10° SSE 17:49:37 14° SE 17:51:25 10° E daylight
28 Sep - 19:22:52 10° WSW 19:25:50 31° NW 19:28:48 10° NNE daylight
29 Sep - 01:56:14 10° N 01:57:59 14° NE 01:59:44 10° ENE night (unlit)
29 Sep - 03:31:28 10° WNW 03:34:36 42° SW 03:37:43 10° SSE night (unlit)
29 Sep - 18:30:08 10° SW 18:33:21 75° NW 18:36:38 10° NE daylight
